| time (UTC) | temp F | wind direction | speed MPH | gust MPH | rain 1hr in | rain 24hr in | rain mn in | humidity % | barometer mb |
| 20260506061216 | 48 | 0.0 | 2.0 | 0.01 | 0.11 | 0.11 | 90 | 1006.0 | |
| 20260506060216 | 48 | 332 | 0.0 | 3.0 | 0.00 | 0.11 | 0.10 | 90 | 1005.9 |
| 20260506051216 | 47 | 0.0 | 0.0 | 0.00 | 0.10 | 0.09 | 90 | 1005.9 | |
| 20260506050236 | 47 | 321 | 0.0 | 3.0 | 0.02 | 0.11 | 0.09 | 90 | 1005.8 |
| 20260506044235 | 47 | 0.0 | 1.0 | 0.03 | 0.11 | 0.09 | 90 | 1005.9 | |
| 20260506043216 | 47 | 322 | 1.0 | 5.0 | 0.04 | 0.11 | 0.09 | 90 | 1005.8 |
| 20260506042216 | 47 | 0.0 | 0.0 | 0.03 | 0.10 | 0.08 | 90 | 1005.8 | |
| 20260506041215 | 47 | 0.0 | 0.0 | 0.03 | 0.10 | 0.08 | 90 | 1005.8 | |
| 20260506040215 | 47 | 328 | 4.0 | 9.0 | 0.02 | 0.08 | 0.07 | 90 | 1005.8 |
| 20260506035215 | 47 | 0.0 | 0.0 | 0.01 | 0.07 | 0.06 | 90 | 1005.9 | |
| 20260506034216 | 47 | 331 | 1.0 | 4.0 | 0.00 | 0.07 | 0.05 | 90 | 1006.0 |
| 20260506033216 | 47 | 336 | 0.0 | 1.0 | 0.00 | 0.06 | 0.04 | 90 | 1006.0 |
| 20260506032216 | 47 | 346 | 0.0 | 3.0 | 0.00 | 0.06 | 0.04 | 90 | 1006.1 |
| 20260506031216 | 47 | 0.0 | 0.0 | 0.00 | 0.06 | 0.04 | 89 | 1006.1 | |
| 20260506030216 | 47 | 335 | 0.0 | 1.0 | 0.00 | 0.06 | 0.04 | 89 | 1006.2 |
| 20260506025215 | 47 | 330 | 2.0 | 8.0 | 0.00 | 0.06 | 0.04 | 89 | 1006.3 |
| 20260506024215 | 47 | 319 | 2.0 | 6.0 | 0.00 | 0.07 | 0.04 | 89 | 1006.3 |
| 20260506023215 | 47 | 0.0 | 0.0 | 0.00 | 0.06 | 0.03 | 89 | 1006.4 | |
| 20260506022215 | 47 | 322 | 0.0 | 3.0 | 0.00 | 0.07 | 0.03 | 89 | 1006.4 |
| 20260506021216 | 47 | 348 | 2.0 | 8.0 | 0.00 | 0.07 | 0.03 | 89 | 1006.4 |
| 20260506020215 | 47 | 322 | 1.0 | 4.0 | 0.00 | 0.11 | 0.03 | 89 | 1006.5 |
| 20260506015215 | 47 | 318 | 0.0 | 4.0 | 0.00 | 0.15 | 0.03 | 89 | 1006.5 |
| 20260506014216 | 48 | 351 | 0.0 | 4.0 | 0.00 | 0.20 | 0.03 | 89 | 1006.6 |
| 20260506013215 | 48 | 0.0 | 0.0 | 0.00 | 0.24 | 0.03 | 89 | 1006.6 | |
| 20260506012215 | 48 | 0.0 | 0.0 | 0.00 | 0.31 | 0.03 | 89 | 1006.6 | |
| 20260506011216 | 48 | 0.0 | 0.0 | 0.00 | 0.33 | 0.03 | 89 | 1006.6 | |
| 20260506010215 | 48 | 0.0 | 0.0 | 0.00 | 0.35 | 0.03 | 89 | 1006.7 | |
| 20260506005215 | 48 | 0.0 | 0.0 | 0.00 | 0.36 | 0.03 | 89 | 1006.8 | |
| 20260506004215 | 48 | 0.0 | 0.0 | 0.00 | 0.36 | 0.03 | 89 | 1006.9 | |
| 20260506003215 | 48 | 0.0 | 0.0 | 0.00 | 0.37 | 0.03 | 89 | 1006.9 | |
| 20260506002215 | 48 | 0.0 | 0.0 | 0.01 | 0.38 | 0.03 | 89 | 1007.0 | |
| 20260506001215 | 48 | 0.0 | 0.0 | 0.00 | 0.38 | 0.02 | 89 | 1007.0 | |
| 20260506000255 | 48 | 0.0 | 0.0 | 0.00 | 0.38 | 0.02 | 89 | 1007.1 | |
| 20260505235215 | 48 | 0.0 | 0.0 | 0.01 | 0.38 | 0.02 | 89 | 1007.1 | |
| 20260505234215 | 48 | 324 | 0.0 | 4.0 | 0.01 | 0.38 | 0.02 | 89 | 1007.2 |
| 20260505233215 | 49 | 0.0 | 0.0 | 0.01 | 0.39 | 0.02 | 89 | 1007.3 | |
| 20260505232215 | 49 | 0.0 | 0.0 | 0.00 | 0.38 | 0.01 | 89 | 1007.3 | |
| 20260505231215 | 49 | 0.0 | 0.0 | 0.01 | 0.38 | 0.01 | 89 | 1007.3 | |
| 20260505230215 | 49 | 0.0 | 0.0 | 0.01 | 0.38 | 0.01 | 88 | 1007.4 | |
| 20260505225215 | 49 | 0.0 | 0.0 | 0.00 | 0.37 | 0.00 | 88 | 1007.4 | |
| 20260505224235 | 49 | 0.0 | 0.0 | 0.00 | 0.37 | 0.00 | 88 | 1007.5 | |
| 20260505223215 | 49 | 335 | 1.0 | 5.0 | 0.00 | 0.37 | 0.00 | 88 | 1007.5 |
| 20260505222215 | 49 | 0.0 | 3.0 | 0.00 | 0.38 | 0.00 | 88 | 1007.5 | |
| 20260505221235 | 49 | 336 | 0.0 | 1.0 | 0.00 | 0.37 | 0.00 | 88 | 1007.6 |
| 20260505220215 | 49 | 0.0 | 0.0 | 0.00 | 0.38 | 0.00 | 88 | 1007.7 | |
| 20260505215215 | 49 | 0.0 | 0.0 | 0.00 | 0.38 | 0.38 | 88 | 1007.7 | |
| 20260505214255 | 50 | 0.0 | 0.0 | 0.00 | 0.39 | 0.38 | 88 | 1007.7 | |
| 20260505213215 | 50 | 0.0 | 0.0 | 0.00 | 0.40 | 0.38 | 88 | 1007.7 | |
| 20260505212235 | 50 | 0.0 | 0.0 | 0.00 | 0.40 | 0.38 | 87 | 1007.8 | |
| 20260505211235 | 50 | 0.0 | 3.0 | 0.00 | 0.40 | 0.38 | 87 | 1007.9 | |
| 20260505210215 | 50 | 0.0 | 0.0 | 0.00 | 0.40 | 0.38 | 87 | 1007.9 | |
| 20260505205215 | 50 | 0.0 | 1.0 | 0.00 | 0.40 | 0.38 | 87 | 1008.0 | |
| 20260505204215 | 50 | 0.0 | 0.0 | 0.00 | 0.40 | 0.38 | 87 | 1008.0 | |
| 20260505203215 | 50 | 0.0 | 0.0 | 0.00 | 0.40 | 0.38 | 87 | 1008.0 | |
| 20260505202215 | 50 | 279 | 0.0 | 1.0 | 0.00 | 0.40 | 0.38 | 87 | 1008.0 |
| 20260505201215 | 50 | 0.0 | 0.0 | 0.00 | 0.40 | 0.38 | 87 | 1008.0 | |
| 20260505200215 | 50 | 0.0 | 0.0 | 0.00 | 0.40 | 0.38 | 87 | 1007.9 | |
| 20260505195215 | 50 | 0.0 | 0.0 | 0.00 | 0.40 | 0.38 | 87 | 1007.9 | |
| 20260505194215 | 50 | 0.0 | 1.0 | 0.00 | 0.40 | 0.38 | 87 | 1007.8 | |
| 20260505193215 | 50 | 0.0 | 0.0 | 0.00 | 0.40 | 0.38 | 87 | 1007.7 | |
| 20260505192235 | 50 | 0.0 | 0.0 | 0.00 | 0.41 | 0.38 | 87 | 1007.6 | |
| 20260505191215 | 50 | 0.0 | 0.0 | 0.00 | 0.41 | 0.38 | 87 | 1007.6 | |
| 20260505190215 | 50 | 0.0 | 0.0 | 0.00 | 0.42 | 0.38 | 87 | 1007.5 | |
| 20260505185215 | 50 | 333 | 0.0 | 1.0 | 0.00 | 0.42 | 0.38 | 87 | 1007.5 |
| 20260505184215 | 51 | 0.0 | 0.0 | 0.00 | 0.42 | 0.38 | 87 | 1007.5 | |
| 20260505183215 | 51 | 0.0 | 1.0 | 0.00 | 0.42 | 0.38 | 87 | 1007.5 | |
| 20260505182217 | 51 | 0.0 | 0.0 | 0.00 | 0.42 | 0.38 | 87 | 1007.4 | |
| 20260505181217 | 51 | 0.0 | 0.0 | 0.00 | 0.42 | 0.38 | 87 | 1007.5 | |
| 20260505180217 | 51 | 0.0 | 0.0 | 0.00 | 0.42 | 0.38 | 87 | 1007.6 | |
| 20260505175217 | 51 | 0.0 | 0.0 | 0.00 | 0.42 | 0.38 | 87 | 1007.6 | |
| 20260505174217 | 51 | 0.0 | 0.0 | 0.00 | 0.42 | 0.38 | 87 | 1007.5 | |
| 20260505173237 | 51 | 0.0 | 0.0 | 0.00 | 0.42 | 0.38 | 87 | 1007.5 | |
| 20260505172217 | 51 | 0.0 | 0.0 | 0.00 | 0.42 | 0.38 | 87 | 1007.5 | |
| 20260505171237 | 51 | 0.0 | 1.0 | 0.00 | 0.42 | 0.38 | 87 | 1007.5 | |
| 20260505170217 | 51 | 0.0 | 0.0 | 0.00 | 0.42 | 0.38 | 87 | 1007.6 | |
| 20260505165237 | 51 | 0.0 | 2.0 | 0.00 | 0.42 | 0.38 | 87 | 1007.6 | |
| 20260505164237 | 51 | 323 | 0.0 | 3.0 | 0.00 | 0.42 | 0.38 | 87 | 1007.6 |
| 20260505163215 | 51 | 334 | 0.0 | 5.0 | 0.00 | 0.42 | 0.38 | 87 | 1007.6 |
| 20260505162217 | 51 | 0.0 | 0.0 | 0.00 | 0.42 | 0.38 | 87 | 1007.8 | |
| 20260505161217 | 52 | 315 | 0.0 | 1.0 | 0.00 | 0.42 | 0.38 | 86 | 1007.8 |
| 20260505160217 | 52 | 0.0 | 1.0 | 0.00 | 0.42 | 0.38 | 87 | 1007.8 | |
| 20260505153217 | 52 | 0.0 | 0.0 | 0.00 | 0.42 | 0.38 | 87 | 1008.0 | |
| 20260505152216 | 52 | 0.0 | 1.0 | 0.00 | 0.42 | 0.38 | 87 | 1008.1 | |
| 20260505151237 | 52 | 0.0 | 0.0 | 0.00 | 0.42 | 0.38 | 87 | 1008.1 | |
| 20260505150216 | 52 | 335 | 1.0 | 4.0 | 0.00 | 0.42 | 0.38 | 87 | 1008.1 |
| 20260505140237 | 52 | 0.0 | 0.0 | 0.00 | 0.42 | 0.38 | 87 | 1008.4 | |
| 20260505130217 | 51 | 0.0 | 1.0 | 0.00 | 0.42 | 0.38 | 87 | 1008.9 | |
| 20260505124236 | 52 | 336 | 0.0 | 5.0 | 0.00 | 0.42 | 0.38 | 87 | 1008.9 |
| 20260505123217 | 52 | 0.0 | 1.0 | 0.00 | 0.42 | 0.38 | 87 | 1009.0 | |
| 20260505122217 | 52 | 0.0 | 0.0 | 0.00 | 0.42 | 0.38 | 88 | 1009.0 | |
| 20260505121216 | 52 | 356 | 0.0 | 7.0 | 0.00 | 0.42 | 0.38 | 87 | 1009.0 |
| 20260505120237 | 52 | 313 | 0.0 | 6.0 | 0.00 | 0.42 | 0.38 | 88 | 1009.0 |
| 20260505115236 | 52 | 308 | 0.0 | 4.0 | 0.00 | 0.41 | 0.37 | 89 | 1009.0 |
| 20260505114236 | 51 | 0.0 | 0.0 | 0.00 | 0.41 | 0.37 | 88 | 1009.1 | |
| 20260505113236 | 51 | 0.0 | 0.0 | 0.00 | 0.41 | 0.37 | 88 | 1009.1 | |
| 20260505112216 | 51 | 0.0 | 0.0 | 0.00 | 0.41 | 0.37 | 89 | 1009.1 | |
| 20260505111216 | 51 | 0.0 | 0.0 | 0.00 | 0.41 | 0.37 | 89 | 1009.2 | |
| 20260505110216 | 51 | 0.0 | 0.0 | 0.00 | 0.41 | 0.37 | 89 | 1009.3 | |
| 20260505102216 | 51 | 0.0 | 0.0 | 0.00 | 0.41 | 0.37 | 89 | 1009.3 | |
| 20260505101216 | 50 | 0.0 | 3.0 | 0.00 | 0.41 | 0.37 | 89 | 1009.3 | |
| 20260505100216 | 50 | 0.0 | 0.0 | 0.00 | 0.41 | 0.37 | 89 | 1009.4 | |
| 20260505095216 | 50 | 0.0 | 0.0 | 0.00 | 0.41 | 0.37 | 89 | 1009.5 | |
| 20260505094216 | 50 | 0.0 | 0.0 | 0.00 | 0.41 | 0.37 | 89 | 1009.5 | |
| 20260505093216 | 50 | 346 | 1.0 | 6.0 | 0.00 | 0.41 | 0.37 | 89 | 1009.5 |
| 20260505092216 | 50 | 0.0 | 0.0 | 0.00 | 0.41 | 0.37 | 89 | 1009.5 | |
| 20260505091216 | 50 | 308 | 0.0 | 1.0 | 0.00 | 0.41 | 0.37 | 89 | 1009.5 |
| 20260505090216 | 50 | 324 | 0.0 | 7.0 | 0.00 | 0.41 | 0.37 | 89 | 1009.5 |
| 20260505085216 | 50 | 335 | 0.0 | 7.0 | 0.00 | 0.41 | 0.37 | 90 | 1009.5 |
| 20260505084216 | 50 | 0.0 | 0.0 | 0.00 | 0.41 | 0.37 | 90 | 1009.5 | |
| 20260505083217 | 50 | 0.0 | 0.0 | 0.00 | 0.41 | 0.37 | 90 | 1009.5 | |
| 20260505082216 | 51 | 319 | 0.0 | 1.0 | 0.00 | 0.41 | 0.37 | 90 | 1009.5 |
| 20260505081216 | 51 | 46 | 0.0 | 1.0 | 0.00 | 0.41 | 0.37 | 90 | 1009.4 |
| 20260505080216 | 51 | 0.0 | 0.0 | 0.00 | 0.41 | 0.37 | 90 | 1009.4 | |
| 20260505075216 | 51 | 329 | 2.0 | 7.0 | 0.00 | 0.41 | 0.37 | 90 | 1009.4 |
| 20260505074236 | 51 | 0.0 | 1.0 | 0.00 | 0.41 | 0.37 | 90 | 1009.3 | |
| 20260505073216 | 51 | 326 | 1.0 | 6.0 | 0.00 | 0.41 | 0.37 | 90 | 1009.3 |
| 20260505072216 | 51 | 333 | 1.0 | 6.0 | 0.00 | 0.41 | 0.37 | 90 | 1009.3 |
| 20260505071216 | 51 | 324 | 3.0 | 7.0 | 0.00 | 0.41 | 0.37 | 90 | 1009.3 |
| 20260505070236 | 51 | 355 | 0.0 | 2.0 | 0.00 | 0.41 | 0.37 | 90 | 1009.3 |
| 20260505065216 | 51 | 355 | 1.0 | 2.0 | 0.00 | 0.41 | 0.37 | 90 | 1009.3 |
| 20260505064216 | 51 | 47 | 2.0 | 3.0 | 0.00 | 0.41 | 0.37 | 90 | 1009.4 |
| 20260505063216 | 51 | 333 | 1.0 | 4.0 | 0.00 | 0.41 | 0.37 | 90 | 1009.4 |
| 20260505062256 | 51 | 0.0 | 0.0 | 0.00 | 0.41 | 0.37 | 90 | 1009.5 |